Simultaneous Nadir Overpasses (SNOs) Predictions

Prediction of SNOs between GOES-17 and NPP Satellite Orbit:

Table of predicted SNOs for the next 14.0 days since TLE Epoch: 8/17/2024
Index Date Time (GOES-17) GOES-17 Lat,Lon NPP Lat,Lon Distance(km) Time Diff (sec)
1 08/17/2024 20:33:55 0.01,-104.70 -0.64,-107.51 321.17 80
2 08/18/2024 20:17:50 0.01,-104.70 0.39,-102.99 195.20 80
3 08/20/2024 08:39:38 -0.01,-104.69 0.77,-108.26 405.77 80
4 08/21/2024 08:18:12 -0.01,-104.69 -0.21,-103.72 110.57 80
5 08/22/2024 20:40:09 0.01,-104.70 -0.96,-109.03 493.57 80
6 08/23/2024 20:24:03 0.01,-104.70 0.03,-104.49 23.21 80
7 08/26/2024 08:27:05 -0.02,-104.69 0.11,-105.23 61.17 80
8 08/27/2024 08:05:40 -0.02,-104.69 -0.89,-100.69 454.99 80
9 08/28/2024 20:27:35 0.02,-104.68 -0.30,-105.99 149.53 80
10 08/29/2024 20:11:30 0.02,-104.68 0.77,-101.47 367.15 80
